Time,TemperatureF,DewpointF,PressureIn,WindDirection,WindDirectionDegrees,WindSpeedMPH,WindSpeedGustMPH,Humidity,HourlyPrecipIn,Conditions,Clouds,dailyrainin,SoftwareType,DateUTC
2013-02-17 10:59:00,23.0,19.4,29.53,North,0,3.6,-999.0,86,-99.99,,,0.00,Acu-Link.com,2013-02-17 15:59:00,
2013-02-17 11:14:00,23.0,17.2,29.54,WNW,292,7.2,-999.0,78,-99.99,,,0.00,Acu-Link.com,2013-02-17 16:14:00,
2013-02-17 11:30:00,24.8,19.2,29.54,NE,45,2.7,-999.0,79,-99.99,,,0.00,Acu-Link.com,2013-02-17 16:30:00,
2013-02-17 11:45:00,24.8,20.9,29.54,West,270,4.0,-999.0,85,-99.99,,,0.00,Acu-Link.com,2013-02-17 16:45:00,
2013-02-17 12:00:00,26.6,21.0,29.54,NW,315,6.7,-999.0,79,-99.99,,,0.00,Acu-Link.com,2013-02-17 17:00:00,
2013-02-17 12:16:00,26.6,20.4,29.54,NE,45,8.7,-999.0,77,-99.99,,,0.00,Acu-Link.com,2013-02-17 17:16:00,
2013-02-17 12:31:00,26.6,21.0,29.54,South,180,8.7,-999.0,79,-99.99,,,0.00,Acu-Link.com,2013-02-17 17:31:00,
2013-02-17 12:46:00,26.6,19.8,29.53,SE,135,3.6,-999.0,75,-99.99,,,0.00,Acu-Link.com,2013-02-17 17:46:00,
2013-02-17 13:01:00,26.6,19.8,29.53,WSW,247,6.3,-999.0,75,-99.99,,,0.00,Acu-Link.com,2013-02-17 18:01:00,
2013-02-17 13:17:00,26.6,20.4,29.53,WNW,292,5.6,-999.0,77,-99.99,,,0.00,Acu-Link.com,2013-02-17 18:17:00,
2013-02-17 13:32:00,26.6,21.3,29.53,WNW,292,6.7,-999.0,80,-99.99,,,0.00,Acu-Link.com,2013-02-17 18:32:00,
2013-02-17 13:47:00,26.6,21.9,29.53,ESE,112,3.6,-999.0,82,-99.99,,,0.00,Acu-Link.com,2013-02-17 18:47:00,
2013-02-17 14:03:00,26.6,21.3,29.54,WNW,292,10.3,-999.0,80,-99.99,,,0.00,Acu-Link.com,2013-02-17 19:03:00,
2013-02-17 14:18:00,26.6,22.1,29.53,East,90,13.4,-999.0,83,-99.99,,,0.01,Acu-Link.com,2013-02-17 19:18:00,
2013-02-17 14:33:00,26.6,24.3,29.54,NE,45,14.3,-999.0,91,-99.99,,,0.01,Acu-Link.com,2013-02-17 19:33:00,
2013-02-17 14:49:00,26.6,26.1,29.54,SSW,202,6.3,-999.0,98,-99.99,,,0.01,Acu-Link.com,2013-02-17 19:49:00,
2013-02-17 15:04:00,26.6,26.1,29.55,WNW,292,7.2,-999.0,98,-99.99,,,0.01,Acu-Link.com,2013-02-17 20:04:00,
2013-02-17 15:19:00,26.6,26.1,29.56,ENE,67,8.3,-999.0,98,-99.99,,,0.01,Acu-Link.com,2013-02-17 20:19:00,
2013-02-17 15:34:00,23.0,22.5,29.56,East,90,4.7,-999.0,98,-99.99,,,0.01,Acu-Link.com,2013-02-17 20:34:00,
2013-02-17 15:50:00,23.0,22.5,29.57,West,270,2.0,-999.0,98,-99.99,,,0.01,Acu-Link.com,2013-02-17 20:50:00,
2013-02-17 16:05:00,23.0,22.5,29.57,ENE,67,9.2,-999.0,98,-99.99,,,0.01,Acu-Link.com,2013-02-17 21:05:00,
2013-02-17 16:20:00,21.2,19.7,29.58,West,270,5.1,-999.0,94,-99.99,,,0.01,Acu-Link.com,2013-02-17 21:20:00,
2013-02-17 16:36:00,21.2,18.5,29.58,SW,225,11.9,-999.0,89,-99.99,,,0.02,Acu-Link.com,2013-02-17 21:36:00,
2013-02-17 16:51:00,21.2,19.2,29.59,WSW,247,3.1,-999.0,92,-99.99,,,0.02,Acu-Link.com,2013-02-17 21:51:00,
2013-02-17 17:06:00,19.4,15.9,29.60,West,270,5.6,-999.0,86,-99.99,,,0.02,Acu-Link.com,2013-02-17 22:06:00,
2013-02-17 17:22:00,19.4,18.4,29.61,NNW,337,5.6,-999.0,96,-99.99,,,0.02,Acu-Link.com,2013-02-17 22:22:00,
2013-02-17 17:37:00,19.4,15.4,29.63,WNW,292,6.3,-999.0,84,-99.99,,,0.02,Acu-Link.com,2013-02-17 22:37:00,
2013-02-17 17:52:00,17.6,13.9,29.65,West,270,5.6,-999.0,85,-99.99,,,0.02,Acu-Link.com,2013-02-17 22:52:00,
2013-02-17 18:07:00,17.6,13.6,29.66,WSW,247,9.2,-999.0,84,-99.99,,,0.02,Acu-Link.com,2013-02-17 23:07:00,
2013-02-17 18:23:00,17.6,15.4,29.66,West,270,2.0,-999.0,91,-99.99,,,0.04,Acu-Link.com,2013-02-17 23:23:00,
2013-02-17 18:38:00,17.6,14.1,29.68,West,270,5.6,-999.0,86,-99.99,,,0.04,Acu-Link.com,2013-02-17 23:38:00,
2013-02-17 18:53:00,17.6,16.9,29.69,SW,225,3.6,-999.0,97,-99.99,,,0.04,Acu-Link.com,2013-02-17 23:53:00,
2013-02-17 19:08:00,17.6,17.1,29.70,SSW,202,4.0,-999.0,98,-99.99,,,0.04,Acu-Link.com,2013-02-18 00:08:00,
2013-02-17 19:23:00,15.8,13.9,29.70,NNE,22,13.4,-999.0,92,-99.99,,,0.04,Acu-Link.com,2013-02-18 00:23:00,
2013-02-17 19:39:00,15.8,12.9,29.70,SSE,157,3.1,-999.0,88,-99.99,,,0.04,Acu-Link.com,2013-02-18 00:39:00,
2013-02-17 19:54:00,15.8,14.9,29.70,East,90,15.4,-999.0,96,-99.99,,,0.04,Acu-Link.com,2013-02-18 00:54:00,
2013-02-17 20:09:00,15.8,14.9,29.71,SW,225,4.0,-999.0,96,-99.99,,,0.04,Acu-Link.com,2013-02-18 01:09:00,
2013-02-17 20:25:00,15.8,13.4,29.72,South,180,5.6,-999.0,90,-99.99,,,0.04,Acu-Link.com,2013-02-18 01:25:00,
2013-02-17 20:40:00,15.8,12.9,29.72,West,270,5.6,-999.0,88,-99.99,,,0.04,Acu-Link.com,2013-02-18 01:40:00,
2013-02-17 20:55:00,15.8,14.1,29.72,West,270,9.2,-999.0,93,-99.99,,,0.04,Acu-Link.com,2013-02-18 01:55:00,
2013-02-17 21:11:00,14.0,13.3,29.73,SW,225,7.2,-999.0,97,-99.99,,,0.04,Acu-Link.com,2013-02-18 02:11:00,
2013-02-17 21:26:00,14.0,11.9,29.74,ESE,112,5.1,-999.0,91,-99.99,,,0.04,Acu-Link.com,2013-02-18 02:26:00,